PDT,Max TemperatureF,Mean TemperatureF,Min TemperatureF,Max Dew PointF,MeanDew PointF,Min DewpointF,Max Humidity, Mean Humidity, Min Humidity, Max Sea Level PressureIn, Mean Sea Level PressureIn, Min Sea Level PressureIn, Max VisibilityMiles, Mean VisibilityMiles, Min VisibilityMiles, Max Wind SpeedMPH, Mean Wind SpeedMPH, Max Gust SpeedMPH,PrecipitationIn, CloudCover, Events, WindDirDegrees
2012-9-1,76,65,53,59,54,50,89,69,49,29.98,29.94,29.92,10,10,9,14,4,17,0.00,0,,273
2012-9-2,76,64,52,58,54,47,90,68,45,29.96,29.93,29.90,10,10,8,13,4,16,0.00,0,,258
2012-9-3,74,64,55,59,57,54,100,79,57,29.99,29.95,29.91,10,6,0,10,4,15,0.00,2,Fog,282
2012-9-4,81,69,57,59,57,55,93,69,45,30.03,29.99,29.94,10,9,7,12,4,15,0.00,0,,249
2012-9-5,74,69,63,63,60,57,93,75,57,30.01,29.97,29.93,10,10,7,10,3,26,0.01,3,Rain,262
2012-9-6,81,71,61,61,58,55,97,71,45,30.01,29.97,29.93,10,10,7,14,4,18,0.00,0,,242
2012-9-7,79,71,63,61,59,55,90,68,45,30.05,30.00,29.96,10,10,7,13,4,17,0.00,0,,246
2012-9-8,78,70,61,61,59,58,90,72,54,29.97,29.93,29.87,10,9,8,13,3,,0.00,0,,238
2012-9-9,80,71,61,61,59,57,84,68,51,29.91,29.88,29.82,10,9,7,10,4,15,0.00,0,,252
2012-9-10,79,72,64,63,61,59,87,73,58,29.93,29.89,29.86,10,10,8,14,4,17,0.00,0,,262
2012-9-11,75,69,62,65,62,60,93,83,73,30.01,29.94,29.87,10,9,6,17,5,21,0.00,4,,233
2012-9-12,75,71,66,65,64,62,93,83,73,30.06,30.01,29.97,10,8,2,14,5,21,0.00,7,,231
2012-9-13,76,69,62,63,62,60,93,81,68,30.06,30.02,29.97,10,6,1,10,5,,0.00,5,,276
2012-9-14,83,70,57,62,60,56,93,70,47,30.02,29.98,29.94,10,9,7,9,4,18,0.00,0,,273
2012-9-15,90,75,60,61,59,53,93,62,31,30.02,29.98,29.94,10,10,8,12,3,16,0.00,0,,262
2012-9-16,82,71,59,66,62,56,100,79,58,30.04,30.00,29.96,10,7,2,18,4,22,0.00,3,,261
2012-9-17,73,66,58,64,61,56,93,81,68,30.05,30.01,29.96,10,5,1,13,4,17,0.00,6,,273
2012-9-18,75,66,56,59,56,54,97,73,49,30.04,30.00,29.95,10,6,0,12,4,15,0.00,2,Fog,297
2012-9-19,78,66,54,59,55,51,93,68,43,30.01,29.97,29.92,10,10,8,13,4,16,0.00,0,,271
2012-9-20,79,69,58,59,58,55,93,70,47,29.98,29.94,29.89,10,8,6,10,4,14,0.00,0,,272
2012-9-21,83,71,59,62,59,56,90,71,51,29.95,29.90,29.86,10,8,6,12,4,14,0.00,0,,262
2012-9-22,82,72,62,63,61,59,90,71,51,29.95,29.92,29.89,10,8,6,10,3,14,0.00,0,,259
2012-9-23,82,71,59,61,60,56,97,70,42,29.98,29.95,29.91,10,8,6,10,3,14,0.00,0,,257
2012-9-24,76,68,59,60,57,53,90,70,50,30.00,29.95,29.91,10,9,7,13,4,17,0.00,2,,273
2012-9-25,71,65,58,58,56,55,93,77,61,29.96,29.92,29.87,10,8,5,13,5,18,0.00,4,,263
2012-9-26,72,64,56,59,57,54,93,77,61,29.92,29.88,29.83,10,8,4,13,4,16,0.00,3,,292
2012-9-27,75,66,56,61,59,54,93,79,64,29.96,29.91,29.88,9,7,4,14,4,17,0.00,3,,220
2012-9-28,77,69,60,60,59,57,90,72,54,29.97,29.93,29.88,10,8,4,14,4,17,0.00,3,,268
2012-9-29,77,68,58,60,58,54,93,74,54,30.01,29.96,29.92,10,9,6,10,4,,0.00,0,,263
2012-9-30,85,71,56,59,57,54,90,64,37,30.00,29.96,29.91,10,9,6,10,3,14,0.00,0,,247